Location: Ballingbuur
(53.0000°N, 5.7667°E)
Time: 06:25:35
(UTC+00:00)

Cosmos 1743 Rocket - Pass Details

Date: 29 November 2020
Orbit: 603 x 634 km, 82.6° (Epoch: 23 January)

Event Time Altitude Azimuth Distance (km) Brightness Sun altitude
Rises 04:55:24 0° 177° (S) 2,905 7.1 -21.5°
Reaches altitude 10° 04:57:38 10° 173° (S) 2,006 6.3 -21.1°
Maximum altitude 05:01:59 56° 95° (E) 758 4.3 -20.5°
Drops below altitude 10° 05:06:24 10° 18° (NNE) 2,031 6.3 -19.8°
Sets 05:08:41 0° 14° (NNE) 2,945 7.1 -19.5°
